Wind_Speed
51 51 55 59 60 62 60 55 58 50 46 41 39 41 36 32 28 24 22 20 20 20 16 17 19 22 29 32 29 22 19 17 17 19 23 24 23 25 31 40 46 56 54 52
50 51 55 55 59 63 62 61 59 54 49 44 36 35 39 33 31 26 25 22 19 17 16 18 19 19 25 28 24 15 14 18 23 22 21 22 22 23 23 32 39 47 56 59
52 54 55 57 54 58 60 63 60 55 52 48 42 42 40 37 33 28 28 24 18 18 18 16 17 15 20 20 12 10 12 15 14 18 22 22 21 18 20 27 32 37 44 53
55 60 57 46 57 62 67 66 64 62 60 51 46 45 44 39 34 33 31 28 21 19 18 18 18 18 13 6 4 8 8 19 21 17 19 19 15 13 14 21 25 27 30 37
55 57 51 55 64 67 69 66 66 65 64 56 53 49 46 42 38 37 36 33 28 22 19 17 16 14 8 8 14 10 12 23 18 16 15 14 10 8 11 15 21 25 28 30
56 50 53 57 59 64 69 70 68 69 66 60 59 55 49 46 42 42 40 37 32 26 23 22 19 20 17 11 10 10 13 16 10 13 11 7 5 6 9 13 18 20 22 24
36 42 46 56 63 69 76 64 72 74 71 64 65 61 53 52 50 47 42 39 36 33 29 27 24 26 29 26 13 10 8 11 6 7 5 5 4 9 12 13 13 15 16 17
16 26 44 55 58 64 66 78 80 76 73 70 67 66 60 55 53 49 45 42 41 40 36 31 32 30 32 33 29 21 11 5 7 5 7 5 3 3 6 8 13 13 13 12
3 12 17 38 54 58 69 74 78 75 75 75 74 68 63 58 55 52 48 46 44 44 42 38 36 36 35 37 39 30 21 16 16 15 16 10 4 8 19 15 17 16 14 11
21 13 18 44 49 65 72 75 78 76 77 78 73 69 66 63 59 55 53 51 50 49 47 44 41 39 39 42 43 40 32 30 30 23 24 22 25 46 41 37 29 33 25 23
25 27 48 68 54 59 68 74 74 77 76 76 75 73 69 66 63 60 59 56 55 53 51 49 47 43 40 44 45 46 36 43 37 40 43 45 34 45 47 52 56 49 47 39
50 43 40 54 69 56 61 73 74 76 77 78 77 74 72 69 68 65 63 61 59 57 56 54 51 47 46 46 48 47 50 54 51 54 53 52 43 46 51 51 57 52 45 44
73 75 71 63 63 53 58 66 72 75 78 79 79 77 75 72 70 68 67 66 64 61 58 56 54 52 51 50 49 47 51 49 63 67 54 50 45 52 54 56 59 55 50 48
74 84 79 78 75 66 56 58 67 73 76 79 79 77 75 73 72 71 70 69 66 63 60 57 57 55 55 53 53 53 54 50 59 70 61 60 52 52 57 54 54 51 56 52
40 49 64 69 64 55 54 57 62 69 74 77 77 78 76 74 73 72 70 69 66 64 61 60 59 60 60 57 55 55 54 57 55 72 73 66 64 63 65 64 60 60 59 60
38 47 47 46 45 46 48 55 59 63 69 72 74 76 78 76 73 72 70 67 65 65 63 62 63 62 61 61 58 56 54 53 52 60 66 76 73 73 71 78 78 70 65 64
29 34 47 48 44 44 44 51 55 58 62 63 67 70 72 72 72 72 70 69 68 66 65 64 65 65 63 61 56 53 52 51 51 51 58 71 69 69 78 74 72 71 71 71
31 28 33 39 45 44 44 46 45 51 58 61 62 63 64 67 68 67 67 68 68 67 66 64 64 63 58 56 55 53 52 52 51 50 53 55 56 61 70 65 68 72 69 71
33 32 31 34 38 46 46 44 45 46 46 49 58 59 59 60 59 58 61 63 61 60 60 60 58 56 54 51 51 51 51 51 51 52 52 53 55 56 59 64 64 67 70 74
32 33 35 35 36 40 40 39 40 40 41 42 40 47 54 57 57 56 56 57 57 55 54 54 53 54 50 49 46 49 48 51 54 54 59 62 64 68 68 71 74 75 76 79
39 35 34 38 39 38 35 35 38 36 37 38 38 39 37 44 50 53 54 53 51 51 52 50 50 51 50 49 48 48 43 43 45 48 54 62 66 69 73 80 82 81 81 83
44 41 38 37 37 39 37 35 32 33 37 39 39 38 39 40 40 40 42 45 46 48 48 49 51 52 52 53 55 58 59 59 60 59 57 57 61 65 70 74 76 78 79 80
49 46 42 40 38 37 37 37 35 29 27 30 35 40 43 45 45 45 45 45 48 47 43 45 48 48 50 52 56 58 58 56 58 58 57 60 61 62 63 66 70 74 76 76
52 50 45 39 36 32 33 37 36 34 29 26 26 26 28 31 33 36 37 39 41 43 44 47 49 49 51 52 54 54 55 53 50 51 52 54 56 58 59 61 68 71 74 72
55 52 43 35 31 35 33 36 37 35 32 30 26 26 28 27 28 30 34 38 41 45 46 46 47 49 50 50 49 48 48 50 50 52 57 60 60 59 63 70 70 65 73 80
35 35 28 26 25 30 33 32 32 30 30 32 32 33 30 26 20 23 31 34 38 41 43 44 43 42 44 45 47 48 49 53 58 60 58 59 63 64 64 65 74 81 85 90
18 28 35 28 20 30 33 26 25 25 23 29 33 30 32 32 37 25 29 32 34 36 36 38 40 45 49 53 55 57 59 59 63 60 59 59 65 67 73 78 87 88 91 88
Wind_Direction
244 237 233 228 220 222 222 218 226 225 227 232 234 242 249 248 246 247 252 261 272 279 294 295 302 311 311 306 319 308 287 283 264 250 248 247 253 246 233 235 234 229 226 228
245 240 235 230 225 221 219 219 223 224 225 230 232 241 247 247 245 245 247 252 262 278 290 295 293 308 311 311 327 314 315 301 286 274 272 269 269 261 239 229 230 229 230 231
243 242 235 227 224 220 219 219 220 223 224 225 224 234 240 243 245 241 248 252 259 269 281 284 289 312 299 315 328 304 1 344 318 291 277 279 274 264 246 225 224 227 227 230
248 242 235 224 220 217 214 215 215 219 223 224 224 228 236 239 242 241 243 250 250 258 269 281 286 306 287 313 303 334 357 352 334 307 308 297 287 268 244 238 228 222 223 224
248 244 234 218 217 216 217 214 214 216 223 222 225 226 232 236 237 239 239 245 246 250 259 269 287 280 221 258 303 295 337 341 333 323 321 311 285 249 240 225 228 230 232 234
235 232 226 220 217 217 215 213 214 218 221 222 225 226 225 234 236 239 238 240 245 245 250 255 257 249 247 251 264 289 318 329 316 316 318 315 272 246 232 241 238 241 245 245
249 227 221 220 216 213 214 208 215 218 220 220 227 230 225 230 233 237 240 241 246 245 241 245 251 255 255 265 235 261 291 290 309 332 350 336 298 277 260 259 246 240 230 224
277 249 226 221 223 220 213 211 215 216 220 221 225 230 230 230 237 237 240 241 244 248 247 244 248 253 254 260 263 261 246 210 189 163 214 181 107 195 207 201 210 205 207 208
341 357 265 246 229 223 218 217 220 218 221 222 225 227 231 232 236 241 243 245 247 249 252 252 247 248 253 252 251 246 231 190 225 226 216 182 181 279 288 260 244 221 215 227
184 11 305 254 240 228 222 219 219 221 222 226 227 229 231 234 237 239 243 246 248 250 252 254 252 251 251 251 247 240 237 207 238 214 203 226 259 272 267 261 257 253 237 235
182 144 229 248 237 230 228 224 221 222 224 228 230 231 232 235 238 241 243 245 248 252 254 256 256 256 256 254 249 234 233 210 209 213 222 230 255 216 240 239 249 242 254 246
195 197 250 231 232 231 230 227 223 223 224 227 231 233 235 236 239 242 245 248 251 253 255 259 262 263 262 258 255 242 238 214 224 213 216 242 259 236 236 241 249 253 247 240
202 211 221 227 230 231 229 228 227 225 226 227 229 231 235 237 240 243 246 248 251 253 257 260 265 267 266 264 261 260 226 236 230 224 232 250 250 237 234 239 250 264 250 253
209 215 221 226 235 241 235 232 229 229 230 230 231 232 234 237 240 243 246 249 252 255 258 261 263 265 266 268 265 262 261 247 236 229 238 245 237 237 238 250 251 260 253 266
222 218 222 227 229 231 230 232 232 230 231 232 235 236 236 237 239 242 245 249 252 256 259 261 263 264 266 268 270 269 265 260 253 233 239 240 238 246 254 252 267 264 261 264
225 223 220 228 231 233 233 231 230 232 232 233 235 237 239 240 242 244 246 249 252 255 258 260 262 264 267 269 269 271 268 265 266 247 246 246 248 248 254 252 259 270 266 263
244 235 224 228 233 233 234 235 233 232 232 232 236 239 241 242 243 246 248 250 252 254 256 258 262 264 266 269 269 268 269 270 267 266 254 253 253 256 255 261 265 267 263 259
241 245 236 230 230 234 232 233 237 240 236 233 235 238 239 241 243 245 246 248 251 254 257 259 260 263 265 267 266 264 264 267 266 264 261 261 260 258 258 260 260 262 260 258
239 236 234 234 235 235 237 241 243 245 246 242 238 240 242 242 242 243 245 247 250 252 254 256 259 260 262 263 264 265 263 261 255 256 251 255 255 256 257 256 256 259 261 262
244 238 236 235 236 231 232 235 240 241 242 241 239 241 242 243 243 243 244 247 249 250 251 253 256 255 258 259 257 260 261 260 256 254 254 254 256 256 258 262 261 265 268 269
250 248 242 239 239 239 237 239 239 240 240 238 237 240 241 240 242 245 243 244 247 251 253 253 255 258 256 250 251 250 254 259 260 262 262 260 261 261 261 261 262 265 268 267
250 249 248 247 245 242 242 242 244 241 238 238 237 237 239 240 240 244 244 243 244 250 254 257 253 252 250 251 252 253 259 264 266 271 271 271 267 265 264 265 267 269 269 269
249 250 249 248 249 249 244 242 242 241 245 245 244 243 243 243 245 243 243 244 245 249 254 256 255 255 256 259 262 265 266 269 270 268 268 268 268 266 265 266 267 267 267 271
247 248 248 248 248 255 252 245 241 238 242 244 245 245 244 241 243 245 245 248 249 252 255 255 256 260 262 264 266 267 267 267 266 268 268 271 275 274 273 274 273 272 271 266
246 244 238 233 233 241 250 248 240 237 235 236 242 244 245 250 254 261 258 254 254 254 257 259 261 263 263 263 261 261 261 265 268 273 276 280 275 276 279 277 284 293 285 275
235 230 211 202 211 235 240 238 236 236 237 240 242 243 246 230 242 284 272 259 257 257 259 259 257 256 256 259 262 265 271 277 278 282 282 279 281 283 296 294 302 301 297 296
194 180 169 173 173 243 233 236 241 218 233 232 234 238 240 236 236 246 256 254 252 251 251 254 261 265 264 264 270 275 281 286 289 286 282 285 292 296 302 302 304 301 297 289
Height
10794 10800 10803 10809 10818 10827 10838 10851 10849 10862 10868 10871 10872 10871 10877 10881 10884 10888 10891 10894 10895 10895 10894 10892 10891 10888 10883 10878 10875 10872 10871 10871 10870 10871 10872 10873 10873 10871 10872 10876 10880 10888 10895 10901
10782 10787 10791 10802 10809 10815 10829 10836 10843 10850 10858 10861 10867 10868 10866 10872 10876 10881 10884 10888 10890 10889 10888 10887 10886 10885 10879 10875 10873 10871 10870 10869 10867 10866 10865 10864 10862 10862 10862 10865 10869 10875 10883 10890
10771 10771 10776 10786 10803 10810 10819 10824 10833 10841 10845 10848 10855 10857 10859 10862 10868 10873 10876 10879 10883 10884 10883 10882 10882 10880 10876 10873 10873 10870 10868 10865 10862 10860 10858 10857 10856 10855 10857 10857 10860 10865 10871 10878
10759 10755 10762 10788 10785 10794 10800 10810 10819 10824 10828 10839 10844 10846 10848 10854 10860 10865 10868 10871 10875 10877 10877 10876 10877 10876 10873 10871 10870 10868 10865 10864 10860 10857 10855 10853 10853 10853 10854 10859 10860 10861 10865 10868
10738 10742 10762 10766 10765 10777 10786 10800 10808 10812 10816 10826 10831 10836 10839 10845 10851 10855 10859 10863 10867 10870 10871 10872 10872 10872 10869 10868 10867 10866 10864 10862 10858 10855 10854 10853 10853 10854 10856 10855 10858 10859 10862 10864
10718 10726 10743 10754 10759 10767 10774 10784 10796 10801 10808 10815 10819 10822 10831 10835 10840 10844 10848 10853 10858 10862 10864 10866 10868 10867 10866 10864 10864 10863 10862 10859 10856 10855 10854 10853 10852 10853 10854 10857 10857 10860 10862 10863
10712 10722 10736 10742 10743 10750 10752 10785 10782 10785 10793 10803 10804 10811 10823 10823 10827 10833 10839 10844 10848 10851 10855 10858 10859 10861 10861 10861 10862 10860 10858 10857 10856 10857 10856 10856 10856 10858 10857 10856 10856 10858 10857 10858
10715 10725 10730 10733 10743 10747 10757 10753 10760 10771 10780 10789 10796 10798 10808 10816 10818 10824 10829 10834 10838 10841 10845 10849 10851 10853 10855 10856 10857 10857 10856 10855 10856 10856 10856 10856 10857 10857 10858 10858 10857 10856 10857 10857
10711 10720 10722 10730 10735 10746 10745 10753 10755 10766 10772 10775 10780 10790 10797 10806 10811 10815 10820 10824 10827 10831 10834 10837 10840 10843 10846 10848 10850 10852 10853 10853 10853 10854 10854 10852 10856 10861 10864 10863 10860 10856 10856 10857
10707 10717 10719 10718 10720 10724 10730 10736 10745 10755 10762 10764 10774 10781 10788 10794 10800 10805 10809 10812 10816 10819 10823 10826 10829 10833 10836 10836 10840 10844 10843 10845 10842 10846 10846 10844 10850 10839 10856 10857 10857 10857 10852 10850
10715 10724 10714 10704 10706 10711 10721 10726 10735 10744 10754 10759 10764 10770 10777 10783 10788 10793 10796 10800 10804 10808 10812 10815 10817 10822 10825 10825 10827 10831 10835 10835 10832 10829 10832 10832 10826 10834 10830 10836 10841 10845 10846 10846
10709 10691 10695 10681 10690 10700 10706 10714 10722 10731 10740 10746 10752 10760 10765 10771 10775 10780 10785 10788 10792 10796 10799 10802 10805 10810 10812 10813 10814 10818 10822 10822 10823 10819 10817 10818 10818 10813 10815 10822 10830 10833 10833 10833
10673 10674 10673 10674 10680 10688 10695 10701 10708 10715 10723 10730 10737 10743 10750 10758 10763 10767 10771 10774 10778 10783 10787 10791 10793 10796 10798 10799 10799 10801 10804 10810 10811 10806 10805 10811 10808 10806 10809 10812 10816 10818 10820 10821
10664 10660 10662 10667 10675 10680 10683 10688 10694 10703 10709 10716 10723 10729 10736 10743 10748 10753 10757 10760 10764 10770 10775 10778 10780 10780 10782 10783 10784 10784 10784 10789 10795 10790 10794 10797 10799 10798 10798 10799 10801 10803 10804 10806
10646 10651 10657 10661 10663 10664 10668 10674 10680 10688 10694 10702 10709 10715 10722 10728 10732 10737 10742 10747 10751 10756 10760 10763 10764 10765 10765 10768 10770 10768 10768 10770 10773 10777 10779 10781 10784 10783 10784 10783 10785 10788 10786 10788
10633 10635 10640 10644 10648 10652 10656 10661 10667 10674 10680 10688 10693 10699 10705 10712 10718 10723 10729 10734 10738 10741 10744 10746 10747 10748 10750 10752 10754 10754 10752 10752 10752 10757 10760 10762 10765 10768 10768 10767 10767 10769 10770 10770
10621 10624 10628 10634 10637 10641 10646 10650 10654 10660 10665 10672 10678 10685 10692 10698 10704 10709 10715 10719 10723 10725 10728 10729 10730 10731 10734 10735 10736 10737 10737 10736 10737 10737 10740 10743 10745 10747 10748 10748 10748 10749 10750 10750
10610 10613 10617 10622 10627 10631 10634 10639 10643 10646 10651 10658 10664 10669 10676 10682 10688 10694 10698 10702 10705 10708 10710 10712 10713 10715 10717 10718 10719 10721 10722 10723 10722 10722 10722 10723 10725 10727 10726 10728 10728 10729 10728 10728
10602 10606 10609 10613 10616 10621 10625 10631 10633 10637 10641 10646 10652 10657 10663 10668 10673 10677 10681 10684 10688 10691 10694 10696 10698 10701 10703 10704 10703 10704 10704 10706 10707 10708 10708 10708 10708 10707 10706 10708 10708 10709 10709 10708
10594 10598 10602 10605 10608 10612 10617 10621 10623 10628 10632 10636 10639 10644 10649 10654 10659 10664 10667 10670 10673 10675 10678 10681 10683 10686 10687 10687 10687 10689 10689 10690 10692 10692 10692 10693 10692 10691 10690 10689 10689 10688 10685 10683
10584 10589 10593 10597 10601 10605 10609 10612 10615 10619 10622 10626 10629 10633 10636 10640 10644 10648 10652 10655 10658 10660 10663 10665 10668 10670 10671 10671 10673 10674 10675 10675 10676 10675 10675 10675 10674 10673 10670 10668 10666 10664 10662 10659
10574 10579 10583 10586 10590 10595 10599 10603 10606 10610 10613 10616 10619 10622 10625 10628 10631 10634 10637 10641 10644 10647 10649 10651 10652 10653 10655 10657 10658 10659 10659 10659 10659 10658 10655 10654 10653 10651 10648 10646 10643 10639 10636 10632
10561 10567 10573 10578 10582 10585 10590 10594 10598 10602 10605 10608 10610 10612 10615 10618 10620 10624 10627 10630 10633 10635 10636 10638 10638 10638 10639 10640 10641 10642 10641 10640 10638 10636 10634 10632 10631 10630 10628 10624 10621 10616 10612 10608
10548 10555 10561 10569 10574 10578 10581 10585 10590 10594 10598 10601 10603 10605 10607 10609 10611 10614 10617 10619 10620 10622 10623 10623 10624 10624 10625 10626 10625 10624 10622 10620 10619 10618 10616 10614 10612 10609 10605 10601 10596 10592 10588 10580
10532 10540 10550 10560 10568 10573 10575 10577 10581 10585 10589 10592 10595 10597 10600 10603 10606 10607 10607 10607 10607 10608 10609 10609 10610 10611 10610 10609 10607 10606 10605 10604 10602 10600 10597 10594 10590 10584 10580 10576 10570 10562 10557 10550
10517 10527 10540 10552 10560 10567 10569 10571 10574 10579 10583 10585 10587 10589 10592 10593 10594 10595 10595 10594 10594 10595 10596 10596 10596 10596 10595 10595 10594 10593 10592 10591 10586 10582 10577 10573 10568 10564 10555 10548 10538 10531 10523 10513
10509 10518 10529 10545 10556 10570 10565 10567 10570 10573 10576 10578 10578 10581 10582 10583 10584 10583 10583 10584 10583 10584 10585 10585 10585 10582 10582 10581 10580 10576 10571 10569 10565 10561 10557 10549 10542 10535 10526 10519 10510 10502 10493 10482